Regional Weather Roundup
Issued by NWS

Home | Current Version | Previous Version | Graphics & Text | Print | Product List | Glossary On
Versions: 1 2 3 4 5 6 7 8 9 10 11 12 13 14 15 16 17 18 19 20 21 22 23 24 25 26 27 28 29 30 31 32 33 34 35 36 37 38 39 40 41 42 43 44 45 46 47 48 49 50
000
ASUS43 KLMK 101210
RWRKY
KENTUCKY REGIONAL WEATHER ROUNDUP
NATIONAL WEATHER SERVICE LOUISVILLE KY
800 AM EDT THU JUL 10 2014

NOTE "FAIR" INDICATES FEW OR NO CLOUDS BELOW 12,000 FEET
WITH NO SIGNIFICANT WEATHER AND/OR OBSTRUCTIONS TO VISIBILITY.

KYZ001>023-026-027-061>063-070>075-101300-
WESTERN AND SOUTH CENTRAL KENTUCKY

CITY           SKY/WX    TMP DP  RH WIND       PRES   REMARKS
PADUCAH        FAIR      73  65  75 NE3       30.06R
HENDERSON      FAIR      70  61  73 NE5       30.06R
OWENSBORO      FAIR      70  64  81 N6        30.08R
HOPKINSVILLE   FAIR      64  64 100 CALM      30.07R
BOWLING GREEN  FAIR      66  62  87 CALM      30.08R
GLASGOW        FAIR      64  64  97 CALM      30.08S
$$

KYZ024-025-028>034-038-045-046-053-101300-
NORTH CENTRAL KENTUCKY

CITY           SKY/WX    TMP DP  RH WIND       PRES   REMARKS
LOUISVILLE/SDF PTSUNNY   71  62  73 N6        30.08R
LOUISVILLE/LOU FAIR      69  63  81 NW3       30.09R
FORT KNOX      FAIR      68  64  88 NE3       30.07R
$$

KYZ035>037-039>044-047>052-055>060-089>105-101300-
NORTHEAST KENTUCKY

CITY           SKY/WX    TMP DP  RH WIND       PRES   REMARKS
LEXINGTON      FAIR      66  61  84 CALM      30.09R
COVINGTON      PTSUNNY   66  59  78 N5        30.09R
FRANKFORT      PTSUNNY   65  62  90 CALM      30.08R
$$

KYZ054-064>069-076>088-106>120-101300-
SOUTHEAST KENTUCKY

CITY           SKY/WX    TMP DP  RH WIND       PRES   REMARKS
JACKSON        FAIR      67  63  87 CALM      30.10R
LONDON         FOG       64  63  96 CALM      30.10R VSB 1/4
SOMERSET       FAIR      64  63  94 CALM      30.10S
MIDDLESBORO    CLOUDY    67  67  97 CALM      30.11R
MONTICELLO     FAIR      66  64  93 CALM      30.11R
$$




USA.gov is the U.S. government's official web portal to all federal, state and local government web resources and services.